FW3959 Weather Reports


time (UTC)temp
F
wind
direction
speed
knots
gust
knots
rain 1hr
in
rain 24hr
in
rain mn
in
humidity
%
barometer
mb
20260505070022 43 223 9.6 13.0 0.00 0.00 0.00 86 1009.9
20260505064512 43 232 11.3 14.8 0.00 0.00 0.00 87 1009.6
20260505063012 43 215 11.3 14.8 0.00 0.00 0.00 87 1009.4
20260505061507 43 213 12.2 16.5 0.00 0.00 0.00 86 1009.0
20260505060006 43 217 12.2 17.4 0.00 0.00 0.00 86 1008.7
20260505054505 43 215 10.4 14.8 0.00 0.00 0.00 86 1008.5
20260505053003 43 204 11.3 15.6 0.00 0.00 0.00 86 1008.4
20260505051601 44 209 9.6 14.8 0.00 0.00 0.00 85 1008.2
20260505041556 42 240 11.3 14.8 0.00 0.00 0.00 85 1007.0
20260505040053 43 239 11.3 16.5 0.00 0.00 0.00 84 1006.8
20260505034545 44 226 13.9 20.9 0.00 0.00 0.00 82 1006.9
20260505033043 44 216 13.9 17.4 0.00 0.00 0.00 83 1006.7
20260505031548 44 220 13.0 16.5 0.00 0.00 0.00 82 1006.5
20260505030036 43 219 10.4 13.9 0.00 0.00 0.00 83 1006.4
20260505024538 44 217 8.7 13.0 0.00 0.00 0.00 80 1006.3
20260505023037 46 230 9.6 15.6 0.00 0.00 0.00 78 1006.1
20260505021535 45 226 11.3 16.5 0.00 0.00 0.00 80 1005.8
20260505020030 45 209 10.4 13.0 0.00 0.00 0.00 78 1005.7
20260505014539 45 209 9.6 14.8 0.00 0.00 0.00 76 1005.7
20260505013028 44 234 9.6 12.2 0.00 0.00 0.00 78 1005.7
20260505011528 45 236 10.4 16.5 0.00 0.00 0.00 75 1005.5
20260505010027 47 224 15.6 20.0 0.00 0.00 0.00 70 1005.5
20260505004528 49 216 13.9 18.2 0.00 0.00 0.00 71 1005.2
20260505003026 48 206 17.4 22.6 0.00 0.00 0.00 72 1005.4
20260505001522 49 207 18.2 24.3 0.00 0.00 0.00 67 1005.0
20260505000020 49 199 16.5 23.5 0.00 0.00 0.00 64 1004.6
20260504234519 46 219 14.8 20.9 0.00 0.00 0.00 69 1004.3
20260504233016 48 230 15.6 22.6 0.00 0.00 0.00 63 1003.8
20260504231515 46 261 13.9 20.0 0.00 0.00 0.00 69 1003.7
20260504230014 46 253 9.6 17.4 0.00 0.00 0.00 68 1003.6
20260504224514 48 202 11.3 17.4 0.00 0.00 0.00 66 1003.5
20260504223024 48 228 13.9 20.0 0.00 0.00 0.00 65 1003.6
20260504221509 48 219 15.6 21.7 0.00 0.00 0.00 66 1003.6
20260504220013 48 203 13.9 20.9 0.00 0.00 0.00 67 1003.2
20260504214507 48 223 14.8 20.9 0.00 0.00 0.00 66 1003.0
20260504213014 48 230 15.6 24.3 0.00 0.00 0.00 66 1002.9
20260504211506 49 224 16.5 23.5 0.00 0.00 0.00 67 1002.7
20260504210001 49 226 15.6 24.3 0.00 0.00 0.00 68 1002.6
20260504204559 49 228 17.4 23.5 0.00 0.00 0.00 67 1002.4
20260504203111 47 263 18.2 26.9 0.00 0.00 0.00 68 1002.2
20260504201601 50 267 21.7 40.8 0.00 0.00 0.00 57 1001.9
20260504200115 46 230 18.2 26.9 0.00 0.00 0.00 69 1001.8
20260504194556 50 258 22.6 34.8 0.00 0.00 0.00 57 1001.6
20260504193054 49 249 25.2 35.6 0.00 0.00 0.00 60 1001.3
20260504191556 49 266 26.1 33.9 0.00 0.00 0.00 63 1001.1
20260504190047 49 257 27.8 34.8 0.00 0.00 0.00 65 1000.8
20260504184544 48 228 26.1 32.2 0.00 0.01 0.00 69 1000.4
20260504183043 48 246 25.2 38.2 0.00 0.01 0.00 71 1000.5
20260504181544 46 239 20.9 35.6 0.00 0.01 0.00 75 1000.2
20260504180037 46 239 23.5 35.6 0.00 0.01 0.00 77 1000.1
20260504174535 46 257 27.8 35.6 0.00 0.01 0.00 77 1000.0
20260504173031 44 238 20.9 31.3 0.00 0.01 0.00 81 999.8
20260504171529 43 233 20.0 34.8 0.00 0.01 0.00 83 999.5
20260504110111 38 244 26.1 37.4 0.00 0.01 0.00 88 987.5
20260504100110 38 232 26.9 36.5 0.00 0.01 0.00 91 984.3
20260504081542 38 224 25.2 38.2 0.00 0.01 0.00 93 980.0